Hourly Weather Roundup
Issued by NWS Central Illinois

Home | Current Version | Previous Version | Text Only | Print | Product List | Glossary On
Versions: 1 2 3 4 5 6 7 8 9 10 11 12 13 14 15 16 17 18 19 20 21 22 23 24 25 26 27 28 29 30 31 32 33 34 35 36 37 38 39 40 41 42 43 44 45 46 47 48 49 50
000
NZUS43 KILX 010610
HWRILX

AREA WEATHER ROUNDUP
NATIONAL WEATHER SERVICE, LINCOLN IL
100 AM CDT WED JUL 01 2015


CITY           SKY/WX    TMP DP  RH WIND       PRES   REMARKS
BLOOMINGTON    PTCLDY    66  64  93 E3        29.92R
6HR MIN TEMP:  66; 6HR MAX TEMP:  79;

CHAMPAIGN      CLEAR     64  61  90 CALM      29.90  FOG
6HR MIN TEMP:  64; 6HR MAX TEMP:  77;

DANVILLE       PTCLDY    63  62  97 NE3       29.88R FOG
6HR MIN TEMP:  62; 6HR MAX TEMP:  76;

DECATUR        PTCLDY    66  63  90 CALM      29.90
6HR MIN TEMP:  65; 6HR MAX TEMP:  80;

EFFINGHAM      PTCLDY    69  66  90 CALM      29.91F FOG
FLORA          PTCLDY    69  67  94 CALM      29.91R
6HR MIN TEMP:  69; 6HR MAX TEMP:  79;

GALESBURG      MOCLDY    67  62  85 CALM      29.91R
JACKSONVILLE   MOCLDY    71  69  93 SW3       29.90R
6HR MIN TEMP:  70; 6HR MAX TEMP:  78;

LACON          PTCLDY    63  62  94 CALM      29.89S
6HR MIN TEMP:  63; 6HR MAX TEMP:  77;

LAWRENCEVILLE  PTCLDY    71  69  93 CALM      29.89
6HR MIN TEMP:  71; 6HR MAX TEMP:  79; 6HR PCP: TRACE;

LITCHFIELD     MOCLDY    67  65  94 CALM      29.90F
$$


CITY           SKY/WX    TMP DP  RH WIND       PRES   REMARKS
LINCOLN        MOCLDY    67  64  88 CALM      29.90S
6HR MIN TEMP:  67; 6HR MAX TEMP:  80;

MACOMB         MOCLDY    68  67  98 NE5       29.92R FOG
MATTOON        FOG       65  64  97 CALM      29.89S VSB 1/2
6HR MIN TEMP:  65; 6HR MAX TEMP:  72; 6HR PCP:  0.01;

MT CARMEL AP   PTCLDY    72  66  83 W3        29.89S
OLNEY-NOBLE AP PTCLDY    70  68  94 W3        29.90S
PARIS          CLEAR     63  63  98 CALM      29.90S FOG
6HR MIN TEMP:  63; 6HR MAX TEMP:  75;

PEORIA         MOCLDY    69  63  81 CALM      29.89
6HR MIN TEMP:  69; 6HR MAX TEMP:  81; 6HR PCP: TRACE;

PONTIAC        CLEAR     63  62  96 E7        29.92S
RANTOUL        CLEAR     67  64  89 NE5       29.91R
6HR MIN TEMP:  67; 6HR MAX TEMP:  79;

ROBINSON       CLEAR     66  65  97 CALM      29.90S FOG
6HR MIN TEMP:  66; 6HR MAX TEMP:  77;

SPRINGFIELD    MOCLDY    69  67  93 CALM      29.90R FOG
6HR MIN TEMP:  69; 6HR MAX TEMP:  81;

TAYLORVILLE    MOCLDY    64  64 100 CALM      29.90S FOG
$$

...REGIONAL REPORTS...


CITY           SKY/WX    TMP DP  RH WIND       PRES   REMARKS
CHICAGO O`HARE PTCLDY    57  51  80 N8        29.92
KANKAKEE       CLEAR     60  59  97 CALM      29.92R FOG
MOLINE         MOCLDY    66  61  84 CALM      29.89
MOUNT STERLING NOT AVBL
MOUNT VERNON   PTCLDY    68  63  83 CALM      29.91S
PITTSFIELD     MOCLDY    71  68  90 CALM      29.91S
QUINCY         CLOUDY    71  68  90 CALM      29.89
ROCKFORD       MOCLDY    61  56  83 E6        29.93R
$$


CITY           SKY/WX    TMP DP  RH WIND       PRES   REMARKS
BURLINGTON     CLOUDY    71  68  90 NE7       29.89
CEDAR RAPIDS   CLOUDY    65  61  87 NE5       29.92
DES MOINES     CLOUDY    73  64  73 E5        29.91
KIRKSVILLE     RAIN      70  67  90 W5        29.95F FOG
OTTUMWA        CLOUDY    70  67  90 NE7       29.89
ST LOUIS       CLOUDY    75  69  81 SW3       29.92R
$$


CITY           SKY/WX    TMP DP  RH WIND       PRES   REMARKS
TERRE HAUTE    PTCLDY    64  63  96 CALM      29.90  FOG
EVANSVILLE     MOCLDY    73  68  84 W5        29.90
INDIANAPOLIS   PTCLDY    67  61  81 CALM      29.88
LAFAYETTE      CLEAR     63  60  90 N3        29.90
MADISON        MOCLDY    59  54  83 N3        29.92
MILWAUKEE      MOCLDY    54  49  83 N5        29.93
$$




USA.gov is the U.S. government's official web portal to all federal, state and local government web resources and services.